| time (UTC) | temp F | wind direction | speed knots | gust knots | rain 1hr in | rain 24hr in | rain mn in | humidity % | barometer mb |
| 20260504213027 | 49 | 237 | 1.7 | 0.0 | 0.00 | 0.00 | 0.00 | 60 | 1013.0 |
| 20260504212028 | 49 | 197 | 3.5 | 0.0 | 0.00 | 0.00 | 0.00 | 60 | 1013.0 |
| 20260504211021 | 50 | 244 | 1.7 | 0.0 | 0.00 | 0.00 | 0.00 | 60 | 1013.1 |
| 20260504205034 | 47 | 180 | 2.6 | 0.0 | 0.00 | 0.00 | 0.00 | 68 | 1012.9 |
| 20260504204034 | 47 | 166 | 2.6 | 0.0 | 0.00 | 0.00 | 0.00 | 65 | 1013.0 |
| 20260504203030 | 49 | 195 | 4.3 | 0.0 | 0.00 | 0.00 | 0.00 | 60 | 1013.2 |
| 20260504202030 | 52 | 200 | 1.7 | 0.0 | 0.00 | 0.00 | 0.00 | 48 | 1013.1 |
| 20260504201023 | 52 | 163 | 2.6 | 0.0 | 0.00 | 0.00 | 0.00 | 49 | 1013.1 |
| 20260504200023 | 50 | 163 | 0.9 | 0.0 | 0.00 | 0.00 | 0.00 | 50 | 1013.1 |
| 20260504195040 | 47 | 155 | 0.9 | 0.0 | 0.00 | 0.00 | 0.00 | 55 | 1013.3 |
| 20260504193037 | 50 | 218 | 2.6 | 0.0 | 0.00 | 0.00 | 0.00 | 54 | 1014.1 |
| 20260504192033 | 51 | 360 | 1.7 | 0.0 | 0.00 | 0.00 | 0.00 | 53 | 1013.7 |
| 20260504190031 | 52 | 337 | 3.5 | 0.0 | 0.00 | 0.00 | 0.00 | 54 | 1013.9 |
| 20260504185027 | 51 | 290 | 3.5 | 0.0 | 0.00 | 0.00 | 0.00 | 54 | 1014.0 |
| 20260504183022 | 51 | 349 | 0.9 | 0.0 | 0.00 | 0.00 | 0.00 | 55 | 1014.4 |
| 20260504182020 | 51 | 226 | 1.7 | 0.0 | 0.00 | 0.00 | 0.00 | 53 | 1014.4 |
| 20260504181035 | 51 | 257 | 0.9 | 0.0 | 0.00 | 0.00 | 0.00 | 56 | 1014.6 |
| 20260504180033 | 52 | 184 | 0.0 | 0.0 | 0.00 | 0.00 | 0.00 | 50 | 1014.6 |
| 20260504175030 | 52 | 284 | 0.9 | 0.0 | 0.00 | 0.00 | 0.00 | 49 | 1014.5 |
| 20260504174029 | 52 | 202 | 2.6 | 0.0 | 0.00 | 0.00 | 0.00 | 54 | 1014.7 |
| 20260504173029 | 52 | 238 | 1.7 | 0.0 | 0.00 | 0.00 | 0.00 | 51 | 1014.8 |
| 20260504172021 | 51 | 240 | 1.7 | 0.0 | 0.00 | 0.00 | 0.00 | 56 | 1015.0 |
| 20260504151032 | 44 | 182 | 2.6 | 0.0 | 0.00 | 0.00 | 0.00 | 63 | 1015.2 |
| 20260504141022 | 39 | 19 | 0.9 | 0.0 | 0.00 | 0.00 | 0.00 | 57 | 1015.6 |
| 20260504081029 | 37 | 259 | 0.0 | 0.0 | 0.00 | 0.00 | 0.00 | 49 | 1015.2 |
| 20260504045026 | 43 | 259 | 1.7 | 0.0 | 0.00 | 0.00 | 0.00 | 42 | 1016.4 |
| 20260504044039 | 43 | 259 | 2.6 | 0.0 | 0.00 | 0.00 | 0.00 | 42 | 1016.6 |
| 20260504042026 | 42 | 259 | 0.9 | 0.0 | 0.00 | 0.00 | 0.00 | 43 | 1016.4 |
| 20260504041026 | 42 | 259 | 0.9 | 0.0 | 0.00 | 0.00 | 0.00 | 43 | 1016.6 |
| 20260504035039 | 43 | 259 | 0.0 | 0.0 | 0.00 | 0.00 | 0.00 | 42 | 1016.6 |
| 20260504034031 | 44 | 259 | 0.0 | 0.0 | 0.00 | 0.00 | 0.00 | 41 | 1016.6 |
| 20260504033024 | 45 | 259 | 0.9 | 0.0 | 0.00 | 0.00 | 0.00 | 41 | 1016.5 |
| 20260504032037 | 45 | 259 | 0.9 | 0.0 | 0.00 | 0.00 | 0.00 | 42 | 1016.6 |
| 20260504031030 | 45 | 259 | 0.0 | 0.0 | 0.00 | 0.00 | 0.00 | 45 | 1017.2 |
| 20260504030022 | 45 | 259 | 0.0 | 0.0 | 0.00 | 0.00 | 0.00 | 46 | 1017.3 |
| 20260504025035 | 46 | 259 | 0.0 | 0.0 | 0.00 | 0.00 | 0.00 | 46 | 1017.0 |
| 20260504024028 | 47 | 259 | 0.0 | 0.0 | 0.00 | 0.00 | 0.00 | 45 | 1017.0 |
| 20260504023022 | 47 | 259 | 0.0 | 0.0 | 0.00 | 0.00 | 0.00 | 44 | 1016.9 |
| 20260504022020 | 48 | 259 | 0.0 | 0.0 | 0.00 | 0.00 | 0.00 | 42 | 1016.8 |
| 20260504021036 | 49 | 259 | 0.0 | 0.0 | 0.00 | 0.00 | 0.00 | 41 | 1016.7 |
| 20260504020030 | 50 | 259 | 0.0 | 0.0 | 0.00 | 0.00 | 0.00 | 40 | 1016.7 |
| 20260504015040 | 51 | 259 | 0.0 | 0.0 | 0.00 | 0.00 | 0.00 | 39 | 1016.5 |
| 20260504014031 | 51 | 259 | 0.0 | 0.0 | 0.00 | 0.00 | 0.00 | 38 | 1016.6 |
| 20260504013026 | 52 | 259 | 0.0 | 0.0 | 0.00 | 0.00 | 0.00 | 37 | 1016.4 |
| 20260504012040 | 53 | 259 | 0.0 | 0.0 | 0.00 | 0.00 | 0.00 | 34 | 1016.5 |
| 20260504011031 | 53 | 259 | 0.0 | 0.0 | 0.00 | 0.00 | 0.00 | 33 | 1016.5 |
| 20260504010024 | 54 | 259 | 0.0 | 0.0 | 0.00 | 0.00 | 0.00 | 33 | 1016.5 |
| 20260504005024 | 54 | 259 | 0.0 | 0.0 | 0.00 | 0.00 | 0.00 | 33 | 1016.4 |
| 20260504004020 | 54 | 259 | 0.0 | 0.0 | 0.00 | 0.00 | 0.00 | 32 | 1016.7 |
| 20260504003033 | 55 | 246 | 0.0 | 0.0 | 0.00 | 0.00 | 0.00 | 30 | 1016.6 |
| 20260504001026 | 55 | 284 | 0.0 | 0.0 | 0.00 | 0.00 | 0.00 | 33 | 1016.7 |
| 20260504000023 | 55 | 277 | 0.0 | 0.0 | 0.00 | 0.00 | 0.00 | 31 | 1016.8 |
| 20260503235037 | 55 | 310 | 0.0 | 0.0 | 0.00 | 0.00 | 0.00 | 33 | 1016.9 |
| 20260503233023 | 55 | 188 | 0.0 | 0.0 | 0.00 | 0.00 | 0.00 | 33 | 1017.0 |
| 20260503232033 | 55 | 329 | 0.0 | 0.0 | 0.00 | 0.00 | 0.00 | 35 | 1017.2 |
| 20260503231028 | 54 | 306 | 0.0 | 0.0 | 0.00 | 0.00 | 0.00 | 35 | 1017.1 |
| 20260503230029 | 54 | 294 | 0.0 | 0.0 | 0.00 | 0.00 | 0.00 | 34 | 1017.2 |
| 20260503225023 | 53 | 301 | 0.0 | 0.0 | 0.00 | 0.00 | 0.00 | 36 | 1017.2 |
| 20260503224038 | 52 | 295 | 1.7 | 0.0 | 0.00 | 0.00 | 0.00 | 40 | 1017.4 |
| 20260503223029 | 50 | 360 | 1.7 | 0.0 | 0.00 | 0.00 | 0.00 | 46 | 1018.0 |
| 20260503221020 | 56 | 264 | 0.9 | 0.0 | 0.00 | 0.00 | 0.00 | 34 | 1017.7 |
| 20260503220037 | 56 | 281 | 1.7 | 0.0 | 0.00 | 0.00 | 0.00 | 32 | 1017.6 |
| 20260503215028 | 56 | 265 | 0.9 | 0.0 | 0.00 | 0.00 | 0.00 | 33 | 1017.9 |